Regional Weather Roundup
Issued by NWS

Home | Current Version | Previous Version | Graphics & Text | Print | Product List | Glossary Off
Versions: 1 2 3 4 5 6 7 8 9 10 11 12 13 14 15 16 17 18 19 20 21 22 23 24 25 26 27 28 29 30 31 32 33 34 35 36 37 38 39 40 41 42 43 44 45 46 47 48 49 50

000
ASUS44 KFWD 051215
RWRTX
NORTH TEXAS HOURLY WEATHER ROUNDUP
NATIONAL WEATHER SERVICE FORT WORTH TX
700 AM CDT THU MAY 05 2016

NOTE: "FAIR" INDICATES FEW OR NO CLOUDS BELOW 12,000 FEET WITH NO
SIGNIFICANT WEATHER AND/OR OBSTRUCTIONS TO VISIBILITY.

TXZ118-119-051300-
DALLAS/FORT WORTH METROPLEX

CITY           SKY/WX    TMP DP  RH WIND       PRES   REMARKS
DFW AIRPORT    CLEAR     58  50  75 NW3       30.06R
6HR MIN TEMP:  57; 6HR MAX TEMP:  66;

DALLAS LOVE    PTCLDY    58  51  78 CALM      30.06R
6HR MIN TEMP:  57; 6HR MAX TEMP:  66;

FTW MEACHAM    CLEAR     58  49  72 NW3       30.06S
6HR MIN TEMP:  58; 6HR MAX TEMP:  65;

DAL-EXECUTIVE  CLEAR     54  49  83 W5        30.06R
6HR MIN TEMP:  54; 6HR MAX TEMP:  63;

FTW-ALLIANCE   CLEAR     50  48  93 CALM      30.07R
6HR MIN TEMP:  50; 6HR MAX TEMP:  59;

FTW-NAS-JRB    CLEAR     58  51  78 NW5       30.07S
6HR MIN TEMP:  57; 6HR MAX TEMP:  66;

FTW-SPINKS     CLEAR     50  48  93 CALM      30.08S
ARLINGTON      CLEAR     55  51  86 CALM      30.06S
6HR MIN TEMP:  54; 6HR MAX TEMP:  67;

GRAND PRAIRIE  CLEAR     63  50  63 CALM      30.08R
ADDISON        CLEAR     57  48  72 CALM      30.07R
MESQUITE       CLEAR     55  50  82 SW3       30.07R
LANCASTER      CLEAR     53  48  83 CALM      30.07R
6HR MIN TEMP:  52; 6HR MAX TEMP:  64;

$$

TXZ091>094-102>105-117-120-121-131>134-051300-
NORTH CENTRAL TEXAS

CITY           SKY/WX    TMP DP  RH WIND       PRES   REMARKS
SHRMAN/DENISON CLEAR     48  43  81 CALM      30.08R
6HR MIN TEMP:  46; 6HR MAX TEMP:  56;

GAINESVILLE    CLEAR     49  45  85 CALM      30.10R
6HR MIN TEMP:  49; 6HR MAX TEMP:  59;

BOWIE          CLEAR     51  47  84 CALM      30.09R
6HR MIN TEMP:  51; 6HR MAX TEMP:  61;

BRIDGEPORT     CLEAR     50  50 100 CALM      30.10R
6HR MIN TEMP:  50; 6HR MAX TEMP:  55;

DECATUR        CLEAR     59  40  49 CALM      30.09R
6HR MIN TEMP:  59; 6HR MAX TEMP:  66;

DENTON         CLEAR     50  47  89 NW5       30.07R
6HR MIN TEMP:  50; 6HR MAX TEMP:  61;

MCKINNEY       CLEAR     53  50  89 CALM      30.06R
6HR MIN TEMP:  52; 6HR MAX TEMP:  62;

GREENVILLE     CLEAR     52  46  82 CALM      30.06R
TERRELL        CLEAR     53  49  86 CALM      30.06R
6HR MIN TEMP:  52; 6HR MAX TEMP:  67;

WAXAHACHIE     CLEAR     54  51  89 CALM      30.08R
6HR MIN TEMP:  53; 6HR MAX TEMP:  63;

CLEBURNE       CLEAR     57  54  88 N5        30.08S
GRANBURY       CLEAR     53  50  92 CALM      30.09R
6HR MIN TEMP:  52; 6HR MAX TEMP:  59;

$$

TXZ083>090-098>101-113>116-127>130-139>142-154-155-051300-
WESTERN NORTH TEXAS

CITY           SKY/WX    TMP DP  RH WIND       PRES   REMARKS
WICHITA FALLS  CLEAR     56  49  77 NW5       30.09R
6HR MIN TEMP:  54; 6HR MAX TEMP:  62;

WF-KICKAPOO    CLEAR     58  51  80 CALM      30.10S
6HR MIN TEMP:  57; 6HR MAX TEMP:  66;

ABILENE        CLEAR     57  45  64 CALM      30.09
6HR MIN TEMP:  53; 6HR MAX TEMP:  60;

ABILENE-DYESS  CLEAR     50  46  86 CALM      30.08R
6HR MIN TEMP:  50; 6HR MAX TEMP:  58;

BRECKENRIDGE   CLEAR     54  50  86 CALM      30.08R
6HR MIN TEMP:  53; 6HR MAX TEMP:  60;

GRAHAM         CLEAR     49  49 100 CALM      30.07S
6HR MIN TEMP:  48; 6HR MAX TEMP:  54;

MINERAL WELLS  CLEAR     53  51  93 CALM      30.06S
6HR MIN TEMP:  52; 6HR MAX TEMP:  59;

STEPHENVILLE   CLEAR     56  49  78 CALM      30.10S
6HR MIN TEMP:  55; 6HR MAX TEMP:  59;

COMANCHE       CLEAR     52  49  91 NE5       30.08R
6HR MIN TEMP:  52; 6HR MAX TEMP:  67;

BROWNWOOD      CLEAR     50  48  93 CALM      30.09R
COLEMAN        CLEAR     50  46  84 CALM      30.09R
6HR MIN TEMP:  50; 6HR MAX TEMP:  55;

$$

TXZ143>147-156>162-174-175-051300-
CENTRAL TEXAS

CITY           SKY/WX    TMP DP  RH WIND       PRES   REMARKS
WACO           CLEAR     53  50  89 N5        30.06R
6HR MIN TEMP:  52; 6HR MAX TEMP:  58;

WACO-TSTC      CLEAR     55  54  94 N5        30.06
WACO-MCGREGOR  CLEAR     55  52  89 CALM      30.06R
6HR MIN TEMP:  54; 6HR MAX TEMP:  59;

HILLSBORO      CLEAR     53  50  90 CALM      30.07R
6HR MIN TEMP:  52; 6HR MAX TEMP:  60;

CORSICANA      CLEAR     58  52  80 N6        30.06R
6HR MIN TEMP:  58; 6HR MAX TEMP:  64;

HEARNE         CLEAR     54  52  93 CALM      30.05R
6HR MIN TEMP:  54; 6HR MAX TEMP:  58;

CAMERON        CLEAR     58  53  82 CALM      30.04R
6HR MIN TEMP:  56; 6HR MAX TEMP:  65;

TEMPLE         CLEAR     53  51  93 N6        30.05
6HR MIN TEMP:  52; 6HR MAX TEMP:  60;

KILLEEN        CLEAR     53  50  87 N9        30.06R
6HR MIN TEMP:  53; 6HR MAX TEMP:  67;

KILLEEN-SKYLRK CLEAR     56  50  80 N6        30.06R
6HR MIN TEMP:  55; 6HR MAX TEMP:  63;

FORT HOOD      CLEAR     58  50  73 N8        30.04R
6HR MIN TEMP:  55; 6HR MAX TEMP:  63;

GATESVILLE     CLEAR     52  50  93 MISG      30.09R
HAMILTON       CLEAR     54  49  85 N5        30.08R
6HR MIN TEMP:  54; 6HR MAX TEMP:  59;

LAMPASAS       CLEAR     51  49  92 CALM      30.06R
6HR MIN TEMP:  51; 6HR MAX TEMP:  62;

$$

TXZ095>097-106>112-122>126-135>138-148>153-164>167-051300-
EAST TEXAS

CITY           SKY/WX    TMP DP  RH WIND       PRES   REMARKS
PARIS          CLEAR     52  39  62 NW5       30.05R
6HR MIN TEMP:  52; 6HR MAX TEMP:  59;

SULPHUR SPRNGS CLEAR     55  52  88 W3        30.07R
MOUNT PLEASANT CLEAR     51  51 100 CALM      30.05R
6HR MIN TEMP:  50; 6HR MAX TEMP:  61;

GILMER         PTCLDY    50  49  95 CALM      30.04R
6HR MIN TEMP:  50; 6HR MAX TEMP:  60;

MINEOLA        CLEAR     54  50  87 CALM      30.05R
TYLER          CLEAR     57  49  74 CALM      30.03R
6HR MIN TEMP:  56; 6HR MAX TEMP:  65;

LONGVIEW       CLEAR     52  49  89 NW5       30.02R
6HR MIN TEMP:  51; 6HR MAX TEMP:  62;

MARSHALL       CLEAR     50  48  92 CALM      30.04R
6HR MIN TEMP:  50; 6HR MAX TEMP:  63;

PALESTINE      PTCLDY    53  52  97 CALM      30.05R
JACKSONVILLE   PTCLDY    60  48  64 N5        30.06R
HENDERSON      CLEAR     51  49  94 CALM      30.04R
6HR MIN TEMP:  51; 6HR MAX TEMP:  61;

NACOGDOCHES    CLEAR     50  48  93 CALM      30.02R
6HR MIN TEMP:  50; 6HR MAX TEMP:  57;

LUFKIN         CLEAR     52  51  97 CALM      30.02R
6HR MIN TEMP:  52; 6HR MAX TEMP:  59;

$$

SUPPLEMENTAL OBSERVATIONS (CENTRAL)

CITY           SKY/WX    TMP DP  RH WIND       PRES   REMARKS
LAKE TEXOMA      N/A     57  50  77 W2          N/A
CADDO GRASSLND   N/A     48  46  93 CALM        N/A
PAT MAYSE LAKE   N/A     54  48  82 W2          N/A
GREENVILLE       N/A     54  48  82 N1          N/A
CEDAR HILL       N/A     54  52  94 CALM        N/A
LAKE LIMESTONE   N/A     57  54  88 N5          N/A
MCGREGOR         N/A     55  50  82 N2          N/A
TEMPLE           N/A     66  50  55 N1          N/A
$$

SUPPLEMENTAL OBSERVATIONS (WEST)

CITY           SKY/WX    TMP DP  RH WIND       PRES   REMARKS
POSSUM KINGDOM   N/A     57  50  77 SE5         N/A
LBJ GRASSLAND    N/A     54  48  82 N2          N/A
GRANBURY         N/A     52  48  87 W1          N/A
COMANCHE         N/A     54  48  82 E3          N/A
HAMBY            N/A     48  45  87 SE2         N/A
IVIE RESERVOIR   N/A     54  46  76 NW6         N/A
COLORADO BEND    N/A     48  43  81 W1   C1F1C2F2C3F3C4F4C5F5C6F6C7F7C8F8C9!



USA.gov is the U.S. government's official web portal to all federal, state and local government web resources and services.